| time (UTC) | temp F | wind direction | speed knots | gust knots | rain 1hr in | rain 24hr in | rain mn in | humidity % | barometer mb |
| 20260901233101 | 62 | 0 | 0.0 | 2.6 | 0.00 | 0.01 | 0.01 | 89 | 1012.0 |
| 20260901231551 | 62 | 129 | 1.7 | 2.6 | 0.01 | 0.01 | 0.01 | 89 | 1012.1 |
| 20260901230059 | 62 | 303 | 0.0 | 3.5 | 0.01 | 0.01 | 0.01 | 88 | 1012.5 |
| 20260901224555 | 62 | 352 | 0.9 | 2.6 | 0.01 | 0.01 | 0.01 | 88 | 1012.4 |
| 20260901223059 | 62 | 360 | 0.9 | 2.6 | 0.01 | 0.01 | 0.01 | 87 | 1012.4 |
| 20260901221547 | 64 | 273 | 2.6 | 7.8 | 0.00 | 0.00 | 0.00 | 81 | 1012.4 |
| 20260901220113 | 65 | 238 | 2.6 | 7.8 | 0.00 | 0.00 | 0.00 | 72 | 1012.2 |
| 20260901214552 | 65 | 0 | 0.9 | 4.3 | 0.00 | 0.00 | 0.00 | 74 | 1012.1 |
| 20260901213104 | 64 | 176 | 0.0 | 6.1 | 0.00 | 0.00 | 0.00 | 76 | 1012.1 |
| 20260901211554 | 64 | 149 | 1.7 | 7.0 | 0.00 | 0.00 | 0.00 | 75 | 1012.1 |
| 20260901210050 | 64 | 0 | 0.9 | 4.3 | 0.00 | 0.00 | 0.00 | 75 | 1012.2 |
| 20260901204558 | 65 | 54 | 0.9 | 3.5 | 0.00 | 0.00 | 0.00 | 72 | 1012.2 |
| 20260901203055 | 65 | 0 | 0.9 | 3.5 | 0.00 | 0.00 | 0.00 | 72 | 1012.1 |
| 20260901201557 | 65 | 203 | 1.7 | 5.2 | 0.00 | 0.00 | 0.00 | 70 | 1012.2 |
| 20260901194604 | 65 | 76 | 0.9 | 5.2 | 0.00 | 0.00 | 0.00 | 73 | 1012.3 |
| 20260901193102 | 64 | 0 | 0.0 | 5.2 | 0.00 | 0.00 | 0.00 | 74 | 1012.4 |
| 20260901191548 | 64 | 215 | 0.9 | 2.6 | 0.00 | 0.00 | 0.00 | 74 | 1012.5 |
| 20260901190053 | 64 | 97 | 0.9 | 2.6 | 0.00 | 0.00 | 0.00 | 75 | 1012.8 |
| 20260901184557 | 63 | 87 | 0.0 | 5.2 | 0.00 | 0.00 | 0.00 | 75 | 1012.9 |
| 20260901183048 | 63 | 115 | 1.7 | 6.1 | 0.00 | 0.00 | 0.00 | 75 | 1012.9 |
| 20260901181556 | 63 | 0 | 0.9 | 7.0 | 0.00 | 0.00 | 0.00 | 74 | 1012.9 |
| 20260901180055 | 63 | 82 | 1.7 | 5.2 | 0.00 | 0.00 | 0.00 | 76 | 1012.9 |
| 20260901174552 | 63 | 87 | 1.7 | 7.8 | 0.00 | 0.00 | 0.00 | 76 | 1012.8 |
| 20260901173057 | 63 | 107 | 0.9 | 8.7 | 0.00 | 0.00 | 0.00 | 77 | 1012.8 |
| 20260901171557 | 62 | 273 | 0.9 | 5.2 | 0.00 | 0.00 | 0.00 | 77 | 1012.8 |
| 20260901170115 | 62 | 0 | 0.9 | 3.5 | 0.00 | 0.00 | 0.00 | 80 | 1012.6 |
| 20260901164552 | 60 | 0 | 0.0 | 2.6 | 0.00 | 0.00 | 0.00 | 84 | 1012.8 |
| 20260901163056 | 60 | 0 | 0.9 | 2.6 | 0.00 | 0.00 | 0.00 | 85 | 1012.9 |
| 20260901161558 | 59 | 27 | 0.0 | 2.6 | 0.00 | 0.00 | 0.00 | 86 | 1012.7 |
| 20260901154552 | 58 | 82 | 0.0 | 0.9 | 0.00 | 0.00 | 0.00 | 87 | 1012.8 |
| 20260901153051 | 58 | 0 | 0.0 | 2.6 | 0.00 | 0.00 | 0.00 | 88 | 1012.9 |
| 20260901151554 | 57 | 95 | 0.9 | 2.6 | 0.00 | 0.00 | 0.00 | 88 | 1012.9 |
| 20260901150107 | 57 | 96 | 0.9 | 2.6 | 0.00 | 0.00 | 0.00 | 88 | 1012.8 |
| 20260901144550 | 57 | 188 | 0.0 | 1.7 | 0.00 | 0.00 | 0.00 | 88 | 1012.7 |
| 20260901143059 | 56 | 0 | 0.0 | 0.0 | 0.00 | 0.00 | 0.00 | 89 | 1012.6 |
| 20260901141554 | 56 | 0 | 0.0 | 0.0 | 0.00 | 0.00 | 0.00 | 89 | 1012.4 |
| 20260901140058 | 56 | 0 | 0.0 | 0.0 | 0.00 | 0.00 | 0.00 | 89 | 1012.3 |
| 20260901134553 | 55 | 0 | 0.0 | 0.0 | 0.00 | 0.00 | 0.00 | 90 | 1012.3 |
| 20260901133048 | 55 | 0 | 0.0 | 0.0 | 0.00 | 0.00 | 0.00 | 90 | 1012.2 |
| 20260901131552 | 55 | 0 | 0.0 | 0.0 | 0.00 | 0.00 | 0.00 | 90 | 1012.1 |
| 20260901130054 | 55 | 0 | 0.0 | 0.0 | 0.00 | 0.00 | 0.00 | 90 | 1012.1 |
| 20260901124550 | 54 | 0 | 0.0 | 0.0 | 0.00 | 0.00 | 0.00 | 91 | 1012.2 |
| 20260901123057 | 54 | 0 | 0.0 | 0.9 | 0.00 | 0.00 | 0.00 | 91 | 1012.2 |
| 20260901121604 | 54 | 0 | 0.0 | 0.0 | 0.00 | 0.00 | 0.00 | 91 | 1012.1 |
| 20260901120056 | 54 | 0 | 0.0 | 0.0 | 0.00 | 0.00 | 0.00 | 91 | 1011.9 |
| 20260901114547 | 53 | 0 | 0.0 | 0.0 | 0.00 | 0.00 | 0.00 | 91 | 1012.0 |
| 20260901113100 | 53 | 188 | 0.0 | 1.7 | 0.00 | 0.00 | 0.00 | 91 | 1012.0 |
| 20260901111550 | 53 | 0 | 0.0 | 0.0 | 0.00 | 0.00 | 0.00 | 91 | 1011.8 |
| 20260901110105 | 53 | 0 | 0.0 | 0.9 | 0.00 | 0.00 | 0.00 | 88 | 1011.8 |
| 20260901104559 | 54 | 188 | 0.0 | 2.6 | 0.00 | 0.00 | 0.00 | 89 | 1011.6 |
| 20260901103053 | 54 | 171 | 0.0 | 3.5 | 0.00 | 0.00 | 0.00 | 89 | 1011.5 |
| 20260901101550 | 55 | 174 | 1.7 | 2.6 | 0.00 | 0.00 | 0.00 | 86 | 1011.6 |
| 20260901094553 | 56 | 0 | 0.9 | 3.5 | 0.00 | 0.00 | 0.00 | 87 | 1011.3 |
| 20260901093054 | 56 | 0 | 0.0 | 1.7 | 0.00 | 0.00 | 0.00 | 87 | 1011.2 |
| 20260901091550 | 56 | 0 | 0.0 | 0.0 | 0.00 | 0.00 | 0.00 | 86 | 1011.2 |
| 20260901090100 | 56 | 140 | 0.0 | 1.7 | 0.00 | 0.00 | 0.00 | 86 | 1011.3 |
| 20260901084559 | 56 | 0 | 0.0 | 1.7 | 0.00 | 0.00 | 0.00 | 87 | 1011.3 |
| 20260901083050 | 56 | 0 | 0.0 | 1.7 | 0.00 | 0.00 | 0.00 | 86 | 1011.3 |
| 20260901081552 | 56 | 0 | 0.0 | 0.0 | 0.00 | 0.00 | 0.00 | 85 | 1011.1 |
| 20260901080059 | 56 | 0 | 0.0 | 0.0 | 0.00 | 0.00 | 0.00 | 85 | 1011.0 |
| 20260901074558 | 57 | 140 | 0.9 | 1.7 | 0.00 | 0.00 | 0.00 | 84 | 1010.9 |
| 20260901073052 | 58 | 0 | 0.0 | 1.7 | 0.00 | 0.00 | 0.00 | 82 | 1010.7 |
| 20260901071550 | 58 | 140 | 0.9 | 2.6 | 0.00 | 0.00 | 0.00 | 82 | 1010.5 |
| 20260901070059 | 59 | 28 | 0.0 | 0.9 | 0.00 | 0.00 | 0.00 | 79 | 1010.3 |
| 20260901064555 | 61 | 46 | 0.0 | 2.6 | 0.00 | 0.00 | 0.00 | 79 | 1010.2 |
| 20260901063110 | 61 | 0 | 0.0 | 1.7 | 0.00 | 0.00 | 0.00 | 77 | 1010.0 |
| 20260901061549 | 62 | 5 | 0.0 | 3.5 | 0.00 | 0.00 | 0.00 | 76 | 1009.8 |
| 20260901060057 | 63 | 5 | 0.9 | 4.3 | 0.00 | 0.00 | 0.00 | 74 | 1009.9 |
| 20260901054551 | 64 | 348 | 1.7 | 5.2 | 0.00 | 0.00 | 0.00 | 72 | 1009.8 |
| 20260901053101 | 65 | 300 | 2.6 | 8.7 | 0.00 | 0.00 | 0.00 | 71 | 1009.9 |
| 20260901051611 | 65 | 305 | 2.6 | 10.4 | 0.00 | 0.00 | 0.00 | 70 | 1009.6 |
| 20260901050050 | 66 | 314 | 0.9 | 7.8 | 0.00 | 0.00 | 0.00 | 68 | 1009.7 |
| 20260901044552 | 66 | 329 | 2.6 | 7.8 | 0.00 | 0.00 | 0.00 | 68 | 1009.7 |
| 20260901043058 | 66 | 0 | 0.0 | 4.3 | 0.00 | 0.00 | 0.00 | 69 | 1009.6 |
| 20260901041552 | 67 | 314 | 0.9 | 2.6 | 0.00 | 0.00 | 0.00 | 68 | 1009.4 |
| 20260901040106 | 68 | 9 | 0.0 | 2.6 | 0.00 | 0.00 | 0.00 | 65 | 1009.1 |
| 20260901034603 | 69 | 210 | 0.9 | 2.6 | 0.00 | 0.00 | 0.00 | 63 | 1008.9 |
| 20260901033114 | 70 | 296 | 0.9 | 2.6 | 0.00 | 0.00 | 0.00 | 62 | 1008.3 |
| 20260901031557 | 71 | 310 | 0.9 | 4.3 | 0.00 | 0.00 | 0.00 | 60 | 1008.5 |
| 20260901030055 | 72 | 285 | 0.9 | 5.2 | 0.00 | 0.00 | 0.00 | 58 | 1008.6 |
| 20260901024610 | 73 | 302 | 3.5 | 9.6 | 0.00 | 0.00 | 0.00 | 56 | 1008.6 |
| 20260901023057 | 75 | 272 | 3.5 | 7.8 | 0.00 | 0.00 | 0.00 | 54 | 1008.3 |
| 20260901021608 | 77 | 279 | 2.6 | 8.7 | 0.00 | 0.00 | 0.00 | 51 | 1008.3 |
| 20260901020105 | 79 | 333 | 1.7 | 7.0 | 0.00 | 0.00 | 0.00 | 47 | 1008.3 |
| 20260901014619 | 82 | 279 | 3.5 | 8.7 | 0.00 | 0.00 | 0.00 | 42 | 1008.2 |
| 20260901013057 | 86 | 189 | 0.9 | 2.6 | 0.00 | 0.00 | 0.00 | 27 | 1008.0 |
| 20260901011552 | 86 | 0 | 0.0 | 3.5 | 0.00 | 0.00 | 0.00 | 30 | 1008.2 |
| 20260901010059 | 86 | 0 | 0.0 | 4.3 | 0.00 | 0.00 | 0.00 | 30 | 1008.2 |
| 20260901004617 | 86 | 0 | 0.0 | 6.1 | 0.00 | 0.00 | 0.00 | 28 | 1008.1 |
| 20260901003055 | 86 | 128 | 0.9 | 3.5 | 0.00 | 0.00 | 0.00 | 28 | 1008.1 |
| 20260901001555 | 86 | 142 | 0.9 | 3.5 | 0.00 | 0.00 | 0.00 | 28 | 1008.1 |
| 20260831234557 | 86 | 55 | 1.7 | 4.3 | 0.00 | 0.00 | 0.00 | 28 | 1008.2 |